カタログに戻る

THORAD AGENA D DEB

運用中LEO
NORAD 4326·DEBRIS·🇺🇸 United States

打ち上げ Sep 30, 1969 から Vandenberg Space Force Base

Loading…

次のパス (今後24時間)

TLE

最新Source: Space-Track

元期: Sep 13, 2026, 10:31 UTC

1 04326U 69082DZ  26256.43836213  .00000356  00000-0  15098-3 0  9991
2 04326  70.0531 272.4936 0063925  26.6870 333.7520 14.31877293950080

AllMySatでTHORAD AGENA D DEBをリアルタイム追跡

Download on the App Store